Simultaneous Nadir Overpasses (SNOs) Predictions

Prediction of SNOs between FY3D and LANDSAT-8 Satellite Orbit:

Table of predicted SNOs for the next 14.0 days since TLE Epoch: 12/26/2020
Index Date (FY3D) Time (FY3D) Lat,Lon (FY3D) SZA (FY3D ) Date (LANDSAT-8) Time (LANDSAT-8) Lat,Lon (LANDSAT-8) SZA (LANDSAT-8 ) Distance(km) Time Diff (sec)
1 12/26/2020 04:17:08 -70.74, -66.99 86.00 12/26/2020 04:17:50 -70.74, -67.06 86.00 2.81 42
2 12/26/2020 05:07:52 70.65, 100.47 93.91 12/26/2020 05:07:17 70.64, 100.43 93.90 1.94 35
3 12/28/2020 20:33:30 -70.78, 48.87 86.08 12/28/2020 20:34:18 -70.76, 48.85 86.11 3.08 48
4 12/28/2020 21:24:13 70.64,-143.59 93.78 12/28/2020 21:23:45 70.65,-143.66 93.79 3.36 28
5 12/31/2020 12:49:51 -70.78, 164.80 86.26 12/31/2020 12:50:46 -70.77, 164.75 86.27 2.02 55
6 12/31/2020 13:40:35 70.69, -27.74 93.65 12/31/2020 13:40:13 70.67, -27.77 93.63 2.51 22
7 12/31/2020 14:31:02 -69.84, 140.92 87.23 12/31/2020 14:29:55 -69.90, 138.76 87.12 83.02 67
8 01/03/2021 05:06:13 -70.83, -79.35 86.44 01/03/2021 05:07:13 -70.83, -79.27 86.44 3.12 60
9 01/03/2021 05:56:56 70.68, 88.20 93.41 01/03/2021 05:56:41 70.67, 88.13 93.40 2.92 15
10 01/03/2021 06:47:28 -70.10,-103.55 87.20 01/03/2021 06:46:18 -70.18,-104.96 87.08 54.10 70
11 01/05/2021 21:22:33 -70.83, 36.57 86.73 01/05/2021 21:23:40 -70.84, 36.62 86.73 1.86 67
12 01/05/2021 22:13:17 70.73,-155.96 93.17 01/05/2021 22:13:07 70.73,-155.91 93.17 2.08 10
13 01/05/2021 23:03:53 -70.36, 11.97 87.22 01/05/2021 23:02:41 -70.40, 11.24 87.16 27.44 72
14 01/08/2021 13:38:56 -70.93, 152.32 86.96 01/08/2021 13:40:07 -70.89, 152.58 87.02 10.63 71
15 01/08/2021 14:29:38 70.74, -40.04 92.84 01/08/2021 14:29:35 70.72, -40.03 92.82 1.56 3
16 01/08/2021 15:20:18 -70.57, 127.55 87.35 01/08/2021 15:19:05 -70.62, 127.45 87.29 6.81 73



Historial Predications of SNOs between FY3D and LANDSAT-8
